Location: Byhalia Creek
(34.8270°N, 89.8040°W)
Time: 17:38:54
(UTC+00:00)

Cosmos 1733 Rocket - Pass Details

Date: 22 April 2026
Orbit: 597 x 619 km, 82.5° (Epoch: 9 May)

Event Time Altitude Azimuth Distance (km) Brightness Sun altitude
Rises 01:40:03 0° 185° (S) 2,853 6.3 -13.1°
Reaches altitude 10° 01:42:15 10° 184° (S) 1,957 5.4 -13.5°
Maximum altitude 01:46:35 87° 101° (E) 619 3.0 -14.3°
Drops below altitude 10° 01:50:59 10° 7° (N) 1,983 5.9 -15.1°
Sets 01:53:14 0° 7° (N) 2,895 6.8 -15.5°
